Theta_e
314 314 314 315 316 315 315 314 314 314 312 311 311 311 312 314 313 315 316 320 322 321 316 318 320 320 321 321 323 324 318 319 323 339 340 337 337 339 338 337 337 337 337 337 337
314 314 317 318 318 318 317 315 314 313 312 312 312 313 313 313 314 316 322 323 321 319 316 319 320 320 321 322 323 322 319 321 333 336 339 340 340 345 342 339 338 338 337 337 337
314 314 317 319 319 320 318 315 314 313 312 312 313 313 313 314 317 321 324 322 318 316 319 321 321 322 322 323 324 324 320 325 337 340 340 339 338 336 337 341 338 338 338 338 338
314 314 315 318 319 319 316 315 314 313 313 313 313 313 314 316 331 327 326 322 317 316 319 321 322 323 322 321 326 325 325 335 340 339 341 341 338 337 337 341 339 338 338 338 339
313 314 314 317 319 319 316 314 314 315 318 319 320 320 320 326 331 326 322 318 317 316 320 321 321 323 320 323 325 325 326 336 338 338 341 335 335 335 337 335 340 338 338 338 339
312 313 314 314 318 319 319 315 317 320 323 322 322 322 322 327 326 324 317 317 317 319 321 321 322 324 324 324 323 326 326 334 338 338 339 339 337 341 341 340 344 341 339 343 345
312 312 313 314 315 318 319 318 318 320 319 320 321 321 323 328 325 323 320 318 320 321 321 322 323 323 323 321 326 327 324 323 336 336 336 336 340 342 343 343 342 343 345 346 347
312 312 312 313 314 316 317 318 318 319 320 320 320 322 325 327 324 322 320 320 319 320 321 323 323 323 323 324 325 325 322 321 321 335 337 336 342 340 343 345 346 347 347 347 347
312 312 312 313 314 315 316 320 320 318 319 321 320 332 333 328 323 323 321 321 320 321 322 322 321 321 322 320 319 324 320 321 321 323 335 329 345 343 345 346 345 345 345 346 346
313 313 313 313 314 315 321 323 325 324 318 319 318 322 327 328 323 324 322 322 322 322 322 322 321 317 316 316 317 321 320 319 320 322 322 323 335 341 343 344 344 344 345 345 346
313 314 314 313 314 316 322 323 321 327 321 325 327 325 326 325 324 323 323 323 324 323 320 322 317 316 317 318 320 321 321 322 325 324 322 322 339 339 340 341 343 344 344 345 345
312 313 314 314 314 319 319 320 320 319 320 321 322 322 324 324 324 323 322 323 323 322 322 320 317 319 320 321 321 321 321 322 327 326 325 326 327 333 336 335 342 342 344 344 344
312 312 313 315 316 320 320 320 319 320 321 321 321 323 322 323 324 324 322 323 323 321 320 319 321 323 322 321 322 322 324 323 324 328 327 329 326 323 333 334 335 340 343 344 343
313 313 312 314 316 317 321 320 320 319 321 325 325 324 323 322 323 323 323 323 323 321 321 321 323 323 323 323 323 322 323 324 323 327 327 327 323 323 329 332 330 332 342 342 341
313 313 313 312 313 315 319 320 319 320 330 328 324 322 322 323 324 323 323 323 322 323 323 324 323 324 325 325 324 321 323 326 324 326 325 324 323 324 327 329 330 330 341 341 340
309 311 312 313 313 316 319 319 320 323 331 327 325 324 322 322 324 324 323 323 323 322 323 324 326 325 324 324 324 325 325 326 325 321 322 322 324 323 322 329 332 333 341 341 339
307 307 307 310 313 313 318 320 323 326 328 326 326 324 322 323 323 323 323 321 320 323 322 324 324 326 326 326 325 323 321 321 323 322 323 322 323 323 333 331 332 334 338 339 338
307 308 309 310 312 314 319 320 325 326 327 327 326 325 323 324 324 324 323 321 321 321 321 324 323 324 325 325 325 325 321 320 325 326 325 325 328 331 328 329 329 335 336 337 336
307 308 309 311 314 320 321 322 323 325 326 325 324 325 325 324 324 323 323 323 322 321 323 325 326 326 325 325 324 323 324 322 326 326 323 324 331 332 330 329 330 330 334 336 335
306 307 311 313 319 318 320 321 322 323 322 323 323 323 324 324 325 323 324 324 325 325 325 326 327 328 326 325 325 325 325 322 323 327 328 326 327 333 332 331 329 329 330 337 335
305 316 315 317 319 321 322 321 320 320 321 323 324 323 323 324 324 326 324 325 325 325 325 325 327 327 329 326 326 325 324 323 321 325 326 328 329 329 331 331 329 330 331 335 334
315 319 319 319 322 322 321 321 320 321 321 322 323 323 323 323 324 327 329 329 327 327 325 325 326 326 328 327 327 325 325 323 323 324 325 324 325 329 327 328 332 332 332 331 331
312 316 317 319 321 321 321 321 321 322 323 323 325 324 323 322 324 326 326 327 327 328 327 330 327 328 326 324 326 328 328 327 328 328 327 328 327 329 329 328 331 331 332 331 330
312 317 318 316 320 321 321 321 321 322 323 323 326 325 325 325 324 325 324 325 326 327 326 328 330 328 325 326 327 330 329 329 328 328 325 325 325 326 327 327 327 327 328 330 330
311 315 317 318 319 320 321 321 321 321 322 325 325 325 324 326 326 325 325 325 325 326 327 325 327 330 330 329 327 327 327 326 328 328 330 327 326 325 325 326 329 328 328 329 331
314 315 313 313 318 322 321 323 325 323 320 321 323 326 324 324 326 326 326 326 328 328 328 329 327 328 329 328 327 327 326 325 325 326 328 328 326 323 327 328 329 328 328 328 332
310 314 316 315 317 320 322 323 323 323 324 324 323 323 323 325 325 326 326 327 328 328 327 331 328 330 329 329 328 328 326 326 326 325 327 325 323 324 323 326 327 328 329 332 331
Wind_Speed
28 26 21 19 18 17 16 14 13 11 9 6 4 3 5 6 7 9 8 3 10 8 10 3 4 6 9 13 11 16 3 6 9 7 8 11 18 18 25 34 31 23 29 33 28
26 26 22 21 20 18 17 14 11 9 7 4 2 2 4 5 8 13 8 3 9 12 9 7 13 11 12 15 10 5 2 7 6 7 14 24 24 14 10 19 19 31 30 30 27
25 26 22 22 23 20 16 13 10 7 5 3 2 1 2 2 6 6 9 5 8 7 5 8 13 18 21 22 27 13 7 5 24 40 40 34 35 34 32 6 29 31 35 31 26
24 24 23 22 23 21 17 13 9 6 6 5 5 4 2 3 2 3 4 6 7 7 5 6 9 12 5 6 18 3 12 26 30 42 32 20 25 18 31 8 30 30 28 28 24
22 23 23 20 21 22 18 13 9 7 8 7 7 5 4 5 9 6 4 6 6 7 7 10 19 21 7 11 15 4 2 27 37 42 47 37 28 30 23 30 25 27 26 25 22
21 21 22 20 18 19 18 13 7 7 8 8 7 6 5 4 3 7 4 6 6 6 5 14 21 18 15 12 4 3 6 27 27 34 30 25 20 26 22 28 23 30 27 22 19
21 21 20 20 17 15 15 13 8 7 9 9 9 9 10 8 5 5 4 4 3 6 14 19 14 13 21 11 19 6 5 3 17 18 7 24 11 11 35 31 25 23 19 17 12
22 21 20 19 18 14 13 13 10 8 8 10 11 12 9 2 5 5 3 8 4 8 11 9 10 14 16 16 11 5 6 3 7 16 18 9 10 10 31 30 25 22 18 14 10
22 22 21 20 18 15 13 12 11 9 9 10 11 6 10 8 8 7 8 9 7 7 8 10 10 10 18 6 6 2 5 6 10 14 11 6 18 21 31 29 26 24 21 19 15
23 23 22 19 17 16 11 17 11 9 8 11 13 8 10 13 4 9 7 10 13 7 10 11 5 3 6 3 6 7 6 8 9 8 9 8 11 17 33 32 29 31 29 24 19
24 24 22 19 15 12 14 19 16 3 10 12 11 13 29 7 7 6 9 7 6 9 5 14 2 6 13 11 11 7 7 9 2 6 7 8 17 17 26 28 28 32 33 29 26
23 24 23 19 12 8 15 18 15 14 23 23 27 27 28 17 5 10 11 8 13 6 10 6 9 13 11 11 11 10 8 6 3 7 6 5 3 10 18 21 34 33 36 37 33
22 23 23 19 9 6 13 13 16 21 8 24 22 23 23 16 10 13 16 16 10 9 10 9 12 15 13 10 10 6 3 7 3 4 4 4 4 7 12 27 28 35 39 43 37
22 21 21 22 8 12 7 11 23 20 3 7 8 15 21 16 12 19 20 16 8 10 11 8 20 11 5 3 5 5 7 8 10 2 2 5 4 7 9 13 12 22 33 39 35
22 20 19 17 20 17 13 18 22 14 4 9 6 10 11 17 6 13 17 17 10 14 6 10 8 5 1 5 7 9 7 4 9 1 4 9 3 9 5 7 10 18 32 40 35
22 19 21 14 18 11 15 19 14 1 6 4 8 7 5 19 14 13 8 13 15 8 12 14 16 4 7 7 4 4 6 7 6 4 4 8 4 11 6 9 8 15 36 40 39
23 20 19 20 16 10 10 16 3 3 9 6 7 6 7 7 9 6 7 5 5 2 7 9 7 3 4 3 4 8 7 4 4 3 7 10 4 16 1 9 5 15 32 39 40
25 22 18 21 12 7 5 4 4 10 11 7 4 3 10 11 12 11 8 6 9 8 7 5 8 9 8 7 5 4 8 5 5 3 4 8 5 2 9 20 22 13 25 36 39
25 22 23 13 10 5 7 3 5 7 6 15 4 5 5 7 5 8 10 9 10 11 8 3 7 13 11 6 4 6 3 9 1 4 4 3 3 7 9 9 15 15 19 33 32
24 24 21 5 14 17 5 6 7 14 19 19 10 6 7 8 7 7 8 10 10 9 10 7 3 5 5 6 2 3 1 5 4 1 4 5 4 4 6 7 8 10 9 24 32
16 11 4 12 13 16 6 7 10 24 24 13 9 7 10 9 9 7 8 7 10 10 8 4 6 9 5 2 4 4 2 1 4 4 3 1 5 6 6 8 10 14 18 23 30
5 5 3 14 6 7 10 6 9 22 28 15 1 2 7 8 8 7 7 8 16 7 7 9 6 4 7 6 4 9 10 8 5 7 3 5 6 3 8 11 18 15 18 21 21
4 12 13 10 5 8 13 17 24 20 19 17 7 6 6 8 6 3 9 13 8 5 2 3 2 2 8 7 6 3 4 5 4 4 5 4 6 4 8 7 14 15 18 23 24
5 3 11 19 16 8 9 12 15 21 23 26 4 4 5 6 7 7 8 8 11 4 5 6 2 6 7 8 6 4 6 3 2 3 5 7 8 7 6 8 11 13 9 10 24
5 7 9 4 9 11 11 11 17 16 12 15 5 5 7 5 5 7 9 10 11 6 3 6 4 2 5 7 10 13 11 10 12 10 9 10 9 8 7 8 17 21 18 14 23
5 5 12 21 17 10 7 5 13 17 13 14 5 8 9 8 7 8 9 5 4 4 2 0 4 6 5 8 12 17 17 15 19 13 11 16 10 10 16 6 11 22 22 18 30
8 18 8 10 7 6 6 7 12 15 14 15 12 7 8 5 8 12 13 13 5 3 4 3 4 2 5 7 11 17 13 15 17 11 3 4 5 4 7 2 17 18 21 36 35
Wind_Direction
16 15 15 15 8 358 351 346 342 337 337 331 311 267 240 229 239 248 236 253 292 294 304 262 249 297 279 269 264 267 336 290 299 131 142 139 95 112 132 158 177 207 158 150 148
13 15 15 12 6 358 356 349 344 344 343 344 318 249 232 230 246 243 198 243 282 290 278 265 282 254 241 261 258 172 158 252 202 65 89 69 73 93 169 160 177 133 145 152 156
10 12 12 9 6 360 357 354 350 357 357 8 6 297 287 309 303 253 255 240 278 262 242 292 294 287 243 255 257 220 218 336 67 92 90 76 50 44 348 138 129 140 149 155 161
6 7 8 6 7 8 4 359 359 15 27 30 17 358 338 297 44 266 270 238 250 229 241 298 294 294 255 256 268 204 227 104 112 111 97 87 89 104 264 281 145 146 154 160 164
1 2 4 3 4 8 8 6 10 33 34 22 3 349 329 295 274 318 236 205 226 197 226 273 287 275 256 289 284 335 250 103 107 110 117 124 131 130 252 274 150 154 161 159 161
356 357 357 0 356 2 8 6 14 18 16 4 354 342 315 266 253 322 186 198 177 201 280 290 282 319 297 288 236 4 114 123 117 143 150 136 146 124 216 235 170 172 167 144 129
350 351 350 354 351 349 355 354 339 348 352 354 345 334 303 261 315 348 166 176 130 267 281 308 301 312 324 323 340 33 8 332 132 159 121 121 117 212 197 182 157 136 128 127 124
345 346 345 348 347 343 340 339 322 309 326 333 337 327 288 185 190 257 242 231 267 279 284 323 321 314 296 309 319 107 11 316 255 153 169 139 187 256 144 139 126 124 123 120 129
342 341 341 343 344 336 337 334 321 298 292 301 317 338 287 233 215 205 223 233 214 260 272 299 324 296 304 322 346 15 240 261 276 186 150 182 150 157 148 146 145 150 149 146 142
339 339 338 340 343 339 351 339 324 291 281 291 278 285 255 256 191 202 221 236 236 237 247 247 261 256 319 6 248 243 228 261 233 188 152 157 147 160 162 160 156 158 157 151 150
336 336 335 338 342 345 1 11 5 11 320 268 263 273 288 194 201 228 214 246 276 227 227 250 195 238 241 246 243 269 279 270 356 116 135 153 146 172 173 164 162 166 160 160 165
334 331 331 334 336 352 346 338 345 313 297 285 268 264 264 271 217 206 219 191 233 249 234 298 224 237 237 250 254 267 276 291 39 117 107 95 135 197 178 177 173 171 165 162 155
330 328 328 328 326 318 334 358 341 338 304 297 249 234 245 231 230 251 192 213 236 219 243 215 244 229 242 258 261 270 298 298 240 125 94 118 311 264 188 187 185 180 170 167 165
323 325 329 324 316 319 3 359 347 337 332 267 200 224 220 216 237 243 200 210 240 232 246 233 246 263 152 316 347 321 292 317 288 62 211 118 259 275 199 193 183 181 155 159 159
314 317 316 328 309 317 334 347 337 326 326 159 149 139 189 185 270 219 218 198 253 279 310 261 250 174 153 263 262 249 255 328 256 178 55 305 86 263 245 189 190 176 151 160 166
306 309 305 303 290 325 346 331 319 21 248 175 136 177 163 210 240 173 190 195 244 275 289 288 277 223 182 235 223 78 42 358 18 61 6 254 195 277 247 195 155 161 149 161 166
304 303 295 288 281 295 335 344 12 226 304 157 166 163 192 207 230 180 172 191 224 259 273 286 263 294 291 2 112 84 57 353 348 355 229 263 238 237 175 104 149 166 151 157 164
305 304 288 275 276 281 354 346 248 273 270 285 103 286 187 206 214 205 169 208 225 243 277 266 292 197 201 177 182 182 150 161 223 225 257 337 291 289 88 71 62 158 171 151 162
307 304 293 275 220 145 257 236 230 220 279 346 335 184 269 242 253 199 184 192 220 220 209 277 290 321 188 135 151 263 176 211 180 274 39 247 21 27 73 80 83 77 110 151 164
314 314 294 243 169 227 208 239 255 268 318 310 308 334 317 266 227 238 203 204 224 242 193 231 313 316 114 136 188 107 247 22 357 162 280 283 285 178 115 130 121 127 139 167 170
316 321 283 162 157 171 218 224 242 263 265 264 281 300 298 319 346 309 226 235 215 219 228 153 119 285 14 133 167 324 285 241 152 147 174 314 280 200 161 167 162 171 171 162 166
318 271 171 179 167 208 231 242 238 270 284 288 353 290 293 311 314 326 322 347 24 357 213 185 152 221 228 287 308 204 205 179 138 274 226 180 258 146 155 171 163 172 169 176 178
265 276 233 230 220 234 262 264 253 264 269 269 248 209 241 282 306 288 311 323 350 63 34 7 164 131 330 340 331 241 231 203 163 130 199 195 256 225 170 138 168 179 180 187 190
293 281 243 234 236 252 285 292 288 274 254 264 278 266 269 251 267 283 296 296 308 82 73 71 30 152 192 211 229 275 266 297 196 152 235 232 249 273 237 186 196 166 172 158 192
228 260 298 297 242 237 243 262 283 292 300 267 247 223 268 278 275 287 298 300 288 170 141 118 186 270 266 271 277 274 272 268 238 219 233 255 245 233 241 220 214 186 176 156 156
269 300 338 306 300 302 288 285 287 263 270 293 333 295 222 236 222 245 271 286 250 341 211 258 230 199 257 268 273 274 283 284 283 278 227 235 246 243 256 280 218 180 179 146 118
271 284 292 277 297 305 272 251 278 296 272 282 287 295 301 323 354 348 331 315 270 193 214 201 166 179 249 234 263 257 235 252 272 278 251 265 247 59 21 147 140 132 134 121 125